When you browse on this site, cookies collect data to enhance your experience and personalize the content and advertising you see.
Visit our Privacy Policy to learn more. By continuing to use the site, you agree to this use of cookies and data.
  • In Austria
  • List of Countries
  • For 7 days
  • Water Temperature
  • Satellite Maps
  • Weather Map
  • News
  • Weather Widgets
  • user-avatar
    Login

    Hourly Weather Hvorostevo

    Today, 18 February, Monday

    Time Temperature Precipitation Wind Pressure Humidity
    00:00 -5°C° 0 mm 4 mps 742 mmHg 81%
    01:00 -7°C° 0 mm 4 mps 742 mmHg 82%
    02:00 -7°C° 0 mm 3 mps 743 mmHg 83%
    03:00 -7°C° 0 mm 3 mps 743 mmHg 84%
    04:00 -7°C° 0 mm 3 mps 744 mmHg 86%
    05:00 -8°C° 0 mm 3 mps 745 mmHg 87%
    06:00 -8°C° 0 mm 3 mps 745 mmHg 88%
    07:00 -8°C° 0 mm 3 mps 746 mmHg 88%
    08:00 -7°C° 0 mm 2 mps 746 mmHg 89%
    09:00 -6°C° 0 mm 2 mps 747 mmHg 86%
    10:00 -5°C° 0 mm 2 mps 747 mmHg 83%
    11:00 -5°C° 0 mm 2 mps 747 mmHg 80%
    12:00 -4°C° 0 mm 2 mps 747 mmHg 78%
    13:00 -4°C° 0 mm 2 mps 747 mmHg 76%
    14:00 -3°C° 0 mm 2 mps 748 mmHg 73%
    15:00 -2°C° 0 mm 1 mps 748 mmHg 77%
    16:00 -3°C° 0 mm 1 mps 748 mmHg 80%
    17:00 -4°C° 0 mm 1 mps 748 mmHg 84%
    18:00 -4°C° 0 mm 1 mps 748 mmHg 84%
    19:00 -4°C° 0 mm 1 mps 748 mmHg 85%
    20:00 -6°C° 0 mm 1 mps 747 mmHg 85%
    21:00 -6°C° 0 mm 1 mps 747 mmHg 85%
    22:00 -7°C° 0 mm 2 mps 747 mmHg 85%
    23:00 -7°C° 0 mm 2 mps 747 mmHg 86%

    Tomorrow, 19 February, Tuesday

    Time Temperature Precipitation Wind Pressure Humidity
    00:00 -7°C° 0 mm 3 mps 747 mmHg 84%
    01:00 -7°C° 0 mm 3 mps 746 mmHg 83%
    02:00 -7°C° 0 mm 3 mps 746 mmHg 81%
    03:00 -8°C° 0 mm 4 mps 745 mmHg 80%
    04:00 -8°C° 0 mm 4 mps 745 mmHg 78%
    05:00 -8°C° 0 mm 4 mps 744 mmHg 77%
    06:00 -7°C° 0 mm 4 mps 744 mmHg 77%
    07:00 -7°C° 0 mm 4 mps 743 mmHg 78%
    08:00 -7°C° 0 mm 4 mps 743 mmHg 78%
    09:00 -6°C° 0 mm 5 mps 742 mmHg 77%
    10:00 -4°C° 0 mm 5 mps 742 mmHg 76%
    11:00 -2°C° 0 mm 5 mps 742 mmHg 75%
    12:00 -2°C° 0 mm 5 mps 741 mmHg 75%
    13:00 -1°C° 0 mm 5 mps 740 mmHg 75%
    14:00 -1°C° 0 mm 5 mps 740 mmHg 75%
    15:00 -1°C° 0 mm 5 mps 739 mmHg 77%
    16:00 -2°C° 0 mm 5 mps 738 mmHg 79%
    17:00 -2°C° 0 mm 5 mps 738 mmHg 82%
    18:00 -2°C° 0 mm 5 mps 737 mmHg 83%
    19:00 -4°C° 0 mm 5 mps 737 mmHg 85%
    20:00 -4°C° 0 mm 5 mps 736 mmHg 87%
    21:00 -2°C° 0 mm 5 mps 736 mmHg 88%
    22:00 -2°C° 0 mm 5 mps 735 mmHg 89%
    23:00 -1°C° 0 mm 5 mps 735 mmHg 90%

    Day after tomorrow, 20 February, Wednesday

    Time Temperature Precipitation Wind Pressure Humidity
    00:00 -1°C° 0 mm 5 mps 734 mmHg 91%
    01:00 -1°C° 0 mm 5 mps 733 mmHg 91%
    02:00 -1°C° 0 mm 5 mps 733 mmHg 92%
    03:00 -1°C° 0.2 mm 5 mps 732 mmHg 92%
    04:00 -1°C° 0.2 mm 5 mps 732 mmHg 92%
    05:00 -1°C° 0.2 mm 5 mps 731 mmHg 92%
    06:00 -1°C° 0.3 mm 5 mps 731 mmHg 92%
    07:00 0°C° 0.3 mm 4 mps 731 mmHg 93%
    08:00 0°C° 0.3 mm 4 mps 731 mmHg 93%
    09:00 0°C° 0.1 mm 4 mps 731 mmHg 91%
    10:00 0°C° 0.1 mm 4 mps 731 mmHg 90%
    11:00 0°C° 0.1 mm 4 mps 731 mmHg 88%
    12:00 0°C° 0.1 mm 5 mps 731 mmHg 88%
    13:00 0°C° 0.1 mm 5 mps 731 mmHg 87%
    14:00 0°C° 0.1 mm 5 mps 731 mmHg 87%
    15:00 0°C° 0.3 mm 5 mps 730 mmHg 87%
    16:00 0°C° 0.3 mm 5 mps 730 mmHg 86%
    17:00 0°C° 0.3 mm 5 mps 730 mmHg 85%
    18:00 -1°C° 0.2 mm 5 mps 730 mmHg 83%
    19:00 -2°C° 0.2 mm 5 mps 730 mmHg 80%
    20:00 -2°C° 0.2 mm 5 mps 730 mmHg 78%
    21:00 -4°C° 0.1 mm 5 mps 730 mmHg 78%
    22:00 -5°C° 0.1 mm 5 mps 731 mmHg 79%
    23:00 -5°C° 0.1 mm 5 mps 731 mmHg 80%

    21 February, Thursday

    Time Temperature Precipitation Wind Pressure Humidity
    00:00 -5°C° 0.2 mm 5 mps 731 mmHg 80%
    01:00 -6°C° 0.2 mm 5 mps 731 mmHg 80%
    02:00 -6°C° 0.2 mm 6 mps 731 mmHg 81%
    03:00 -6°C° 0.3 mm 6 mps 731 mmHg 82%
    04:00 -6°C° 0.3 mm 6 mps 732 mmHg 83%
    05:00 -6°C° 0.3 mm 6 mps 732 mmHg 84%
    06:00 -6°C° 0.2 mm 6 mps 732 mmHg 81%
    07:00 -7°C° 0.2 mm 7 mps 733 mmHg 78%
    08:00 -8°C° 0.2 mm 7 mps 733 mmHg 75%
    09:00 -8°C° 0.1 mm 7 mps 734 mmHg 75%
    10:00 -8°C° 0.1 mm 7 mps 735 mmHg 75%
    11:00 -8°C° 0.1 mm 7 mps 736 mmHg 75%
    12:00 -8°C° 0.1 mm 7 mps 736 mmHg 74%
    13:00 -8°C° 0.1 mm 7 mps 737 mmHg 74%
    14:00 -8°C° 0.1 mm 7 mps 738 mmHg 74%
    15:00 -8°C° 0.1 mm 7 mps 739 mmHg 74%
    16:00 -9°C° 0.1 mm 6 mps 740 mmHg 75%
    17:00 -9°C° 0.1 mm 6 mps 741 mmHg 76%
    18:00 -10°C° 0.1 mm 6 mps 742 mmHg 76%
    19:00 -10°C° 0.1 mm 6 mps 743 mmHg 75%
    20:00 -11°C° 0.1 mm 6 mps 743 mmHg 75%
    21:00 -11°C° 0 mm 5 mps 744 mmHg 75%
    22:00 -12°C° 0 mm 5 mps 745 mmHg 75%
    23:00 -12°C° 0 mm 5 mps 745 mmHg 75%

    22 February, Friday

    Time Temperature Precipitation Wind Pressure Humidity
    00:00 -12°C° 0 mm 5 mps 746 mmHg 76%
    01:00 -13°C° 0 mm 5 mps 746 mmHg 76%
    02:00 -13°C° 0 mm 5 mps 747 mmHg 77%
    03:00 -13°C° 0 mm 5 mps 748 mmHg 77%
    04:00 -14°C° 0 mm 5 mps 748 mmHg 78%
    05:00 -14°C° 0 mm 5 mps 749 mmHg 78%
    06:00 -14°C° 0 mm 5 mps 750 mmHg 76%
    07:00 -14°C° 0 mm 5 mps 751 mmHg 74%
    08:00 -14°C° 0 mm 5 mps 752 mmHg 72%
    09:00 -12°C° 0 mm 4 mps 752 mmHg 69%
    10:00 -11°C° 0 mm 4 mps 753 mmHg 66%
    11:00 -9°C° 0 mm 4 mps 754 mmHg 63%
    12:00 -9°C° 0 mm 4 mps 754 mmHg 62%
    13:00 -8°C° 0 mm 4 mps 755 mmHg 62%
    14:00 -8°C° 0 mm 4 mps 755 mmHg 62%
    15:00 -8°C° 0 mm 4 mps 755 mmHg 66%
    16:00 -8°C° 0 mm 3 mps 755 mmHg 69%
    17:00 -8°C° 0 mm 3 mps 756 mmHg 73%
    18:00 -9°C° 0 mm 3 mps 756 mmHg 76%
    19:00 -9°C° 0 mm 3 mps 756 mmHg 78%
    20:00 -10°C° 0 mm 3 mps 757 mmHg 81%
    21:00 -9°C° 0 mm 2 mps 757 mmHg 82%
    22:00 -9°C° 0 mm 2 mps 757 mmHg 83%
    23:00 -10°C° 0 mm 2 mps 757 mmHg 85%

    23 February, Saturday

    Time Temperature Precipitation Wind Pressure Humidity
    00:00 -10°C° 0 mm 2 mps 756 mmHg 85%
    01:00 -10°C° 0 mm 2 mps 756 mmHg 85%
    02:00 -10°C° 0 mm 2 mps 756 mmHg 85%
    03:00 -10°C° 0 mm 2 mps 755 mmHg 82%
    04:00 -9°C° 0 mm 2 mps 755 mmHg 79%
    05:00 -8°C° 0 mm 2 mps 754 mmHg 77%
    06:00 -8°C° 0.2 mm 2 mps 753 mmHg 81%
    07:00 -9°C° 0.2 mm 3 mps 753 mmHg 84%
    08:00 -9°C° 0.2 mm 3 mps 752 mmHg 88%
    09:00 -8°C° 0.9 mm 3 mps 751 mmHg 90%
    10:00 -8°C° 0.9 mm 3 mps 751 mmHg 92%
    11:00 -8°C° 0.9 mm 3 mps 750 mmHg 93%
    12:00 -7°C° 0.4 mm 3 mps 750 mmHg 93%
    13:00 -6°C° 0.4 mm 3 mps 749 mmHg 92%
    14:00 -6°C° 0.4 mm 3 mps 749 mmHg 92%
    15:00 -5°C° 0.2 mm 3 mps 748 mmHg 93%
    16:00 -5°C° 0.2 mm 3 mps 748 mmHg 93%
    17:00 -3°C° 0.2 mm 2 mps 748 mmHg 94%
    18:00 -3°C° 0.1 mm 2 mps 748 mmHg 95%
    19:00 -3°C° 0.1 mm 2 mps 748 mmHg 96%
    20:00 -2°C° 0.1 mm 2 mps 748 mmHg 96%
    21:00 -2°C° 0 mm 2 mps 749 mmHg 97%
    22:00 -2°C° 0 mm 2 mps 749 mmHg 97%
    23:00 -1°C° 0 mm 2 mps 749 mmHg 97%
    Show more